Kosmos-1196

operational
NORAD ID: 11879 Int'l Des: 1980-058 Owner: GUKOSR Country: SU
LEOCIRCULAR

About Kosmos-1196

Description loading...

Live Position

Loading 3D Globe...

Upcoming Passes

Altitude History

Altitude vs Time

uPlot chart will show altitude changes over time

Two-Line Element Set

1 11879U 80058E 26061.58205356 -.00000018 00000-0 -11238-4 0 9996
2 11879 74.0195 165.3933 0004597 17.8848 354.1199 12.48408486559113
Epoch: Mar 2, 2026 • Age: 26 hours

Current Status

Altitude 1477.4 km
Velocity 7.13 km/s
Sub-Earth Point 55.84°N, 2.31°E
Launch Date Jul 9, 1980
Age 45.6 years
Type other

Technical Details

Classification Payload
Mass 60.00 kg
Dry Mass 60.00 kg
Total Mass 60.00 kg
Length 0.80 m
Diameter 0.80 m
Span 0.80 m
Shape Poly
Manufacturer NPOPM
Bus Type Strela-1 11F625
Phase Status In Orbit
Owner/State GUKOSR/SU

Large Constellations

Loading constellations...